Powrót do katalogu

NOAA 16 DEB

AktywnyPO
NORAD 41514·DEBRIS·🇺🇸 United States

Wystrzelony Sep 21, 2000 z Vandenberg Space Force Base

Loading…

Następne Przeloty (najbliższe 24 godziny)

TLE

ŚwieżeSource: Space-Track

Epoka: Sep 14, 2026, 09:46 UTC

1 41514U 00055MN  26257.40726221  .00013000  00000-0  16938-2 0  9994
2 41514  98.8930 113.4609 0020593  67.2386 293.0997 14.80595609544053

Śledź NOAA 16 DEB w czasie rzeczywistym z AllMySat

Download on the App Store